CST,Max TemperatureF,Mean TemperatureF,Min TemperatureF,Max Dew PointF,MeanDew PointF,Min DewpointF,Max Humidity, Mean Humidity, Min Humidity, Max Sea Level PressureIn, Mean Sea Level PressureIn, Min Sea Level PressureIn, Max VisibilityMiles, Mean VisibilityMiles, Min VisibilityMiles, Max Wind SpeedMPH, Mean Wind SpeedMPH, Max Gust SpeedMPH,PrecipitationIn, CloudCover, Events, WindDirDegrees
2013-11-1,89,84,78,79,78,77,94,81,65,29.92,29.87,29.81,14,8,6,9,5,,0.00,2,,101
2013-11-2,88,82,77,79,77,76,100,79,66,29.92,29.87,29.82,14,8,6,9,3,,0.00,4,,112
2013-11-3,82,78,74,77,74,72,96,88,70,29.98,29.91,29.86,14,8,6,13,5,,0.00,5,Rain-Thunderstorm,322
2013-11-4,84,78,73,75,73,72,95,83,57,29.99,29.94,29.88,16,9,6,8,5,,0.00,4,Rain,296
2013-11-5,85,78,72,75,74,72,100,85,63,29.97,29.91,29.84,14,6,0,7,3,,0.00,4,Fog,309
2013-11-6,86,80,73,77,75,73,100,87,66,29.95,29.89,29.83,12,8,6,9,5,,0.08,4,Rain,321
2013-11-7,83,79,75,78,75,73,100,86,70,29.99,29.92,29.86,12,8,6,10,6,,0.08,6,,315
2013-11-8,77,76,74,77,73,36,100,92,22,29.97,29.91,29.86,12,6,1,8,5,,0.67,6,Rain-Thunderstorm,353
2013-11-9,78,76,73,77,75,72,100,96,89,29.98,29.92,29.88,12,8,4,7,5,,0.16,6,Rain-Thunderstorm,303
2013-11-10,77,76,74,75,74,73,100,96,94,30.02,29.95,29.89,12,6,2,12,3,,1.02,7,Rain-Thunderstorm,26
2013-11-11,81,77,73,77,75,72,100,91,79,30.01,29.94,29.88,12,7,2,7,4,,0.63,6,Rain-Thunderstorm,6
2013-11-12,84,78,73,79,76,73,100,90,78,30.00,29.92,29.87,14,7,0,8,3,,0.04,6,Fog-Rain,18
2013-11-13,82,78,74,77,72,36,100,84,21,29.99,29.93,29.87,12,8,6,9,5,,0.16,6,Rain-Thunderstorm,7
2013-11-14,78,76,75,77,75,73,100,93,87,29.98,29.93,29.86,12,6,0,9,5,,0.55,6,Rain,355
2013-11-15,80,76,73,77,75,73,100,97,90,29.95,29.90,29.83,12,6,1,12,5,,0.71,6,Fog-Rain,355
2013-11-16,85,79,73,77,75,73,100,90,74,29.98,29.92,29.85,14,5,0,7,4,,0.00,5,Fog,306
2013-11-17,85,80,75,78,76,75,99,83,70,29.97,29.91,29.86,14,9,6,9,3,,0.00,2,,87
2013-11-18,86,80,74,77,75,73,100,80,59,29.95,29.90,29.84,14,9,6,8,2,,0.00,1,,82
2013-11-19,86,80,74,77,75,73,100,83,64,29.93,29.87,29.81,16,8,6,8,3,,0.08,3,Rain-Thunderstorm,70
2013-11-20,84,80,75,79,76,73,96,86,74,29.95,29.91,29.85,12,8,6,7,2,,0.04,3,Rain,67
2013-11-21,86,80,74,78,76,73,100,83,69,30.00,29.95,29.91,14,9,6,10,3,,0.04,4,Rain,97
2013-11-22,83,78,74,79,75,36,100,89,21,30.00,29.95,29.91,12,6,1,15,4,,0.67,5,Rain-Thunderstorm,51
2013-11-23,83,78,74,77,75,73,100,89,74,30.00,29.95,29.89,12,6,1,12,4,,0.39,6,Rain-Thunderstorm,7
2013-11-24,83,78,72,77,74,72,100,90,69,30.02,29.97,29.92,12,7,0,8,4,,0.03,3,Fog,307
2013-11-25,82,78,73,75,74,72,100,87,70,30.00,29.94,29.88,12,6,0,8,4,,0.12,4,Rain-Thunderstorm,298
2013-11-26,85,79,73,77,75,72,100,87,65,29.97,29.90,29.84,12,7,0,7,1,,0.00,4,Fog-Rain-Thunderstorm,5
2013-11-27,77,74,70,70,64,59,94,70,52,30.20,30.08,29.96,14,8,6,18,14,29,0.00,5,Rain,328
2013-11-28,79,71,63,65,62,59,94,66,43,30.22,30.16,30.08,16,9,6,14,8,,0.00,3,,331
2013-11-29,80,74,68,66,63,61,78,65,47,30.21,30.15,30.10,14,8,6,14,10,,0.00,5,,339
2013-11-30,77,72,66,74,66,36,96,84,24,30.16,30.09,29.90,12,7,2,14,10,,0.01,6,Rain,295